Weather History for Aswan, Egypt

Change the Weather History Date:

Friday, January 4, 2013

  Actual Average Record
Temperature  
Mean Temperature 62 °F -  
Max Temperature 74 °F 71 °F 86 °F (2006)
Min Temperature 51 °F 49 °F 44 °F (2009)
Degree Days  
Heating Degree Days 2    
Growing Degree Days 12 (Base 50)    
Moisture  
Dew Point 35 °F    
Average Humidity 36    
Maximum Humidity 47    
Minimum Humidity 18    
Precipitation  
Precipitation 0.00 in 0.00 in - ()
Sea Level Pressure  
Sea Level Pressure 30.09 in    
Wind  
Wind Speed 6 mph ()    
Max Wind Speed 9 mph    
Max Gust Speed -    
Visibility 6.0 miles    
Events      
Averages and records for this station are not official NWS values.
T = Trace of Precipitation, MM = Missing Value Source: Averaged Metar Reports

Daily Weather History Graph

Daily Weather History Graph

Search for Another Location

Airport:

Trip Planner

Search our weather history database for the weather conditions in past years. The results will help you decide how hot, cold, wet, or windy it might be!

Date:

Astronomy

Jan. 04, 2013 Rise Set
Actual Time 6:32 AM EET 5:15 PM EET
Civil Twilight 6:07 AM EET 5:39 PM EET
Nautical Twilight 5:39 AM EET 6:07 PM EET
Astronomical Twilight 5:11 AM EET 6:35 PM EET
Moon 11:41 PM EET (1/4) 10:51 AM EET (1/4)
Length of Visible Light 11h 31m
Length of Day
10h 42m
Waning Gibbous, 58% of the Moon is Illuminated
Jan 4
Waning Gibbous
Jan 5
Last Quarter
Jan 11
New
Jan 19
First Quarter
Jan 27
Full

Hourly Weather History & Observations

Time (EET) Temp. Dew Point Humidity Pressure Visibility Wind Dir Wind Speed Gust Speed Precip Events Conditions
12:00 AM 57.2 °F 32.0 °F 38% 30.12 in - North 5.8 mph - N/A   Clear
1:00 AM 55.4 °F 32.0 °F 41% 30.12 in - North 6.9 mph - N/A   Clear
2:00 AM 55 °F 32 °F 29% 30.12 in 6 mi North 8.1 mph - -  
2:00 AM 55.4 °F 32.0 °F 41% 30.09 in - North 8.1 mph - N/A   Clear
3:00 AM 51.8 °F 32.0 °F 47% 30.09 in - North 5.8 mph - N/A   Clear
4:00 AM 51.8 °F 32.0 °F 47% 30.09 in - North 5.8 mph - N/A   Clear
5:00 AM 51.8 °F 32.0 °F 47% 30.09 in - North 4.6 mph - N/A   Clear
6:00 AM 51.8 °F 32.0 °F 47% 30.09 in - North 5.8 mph - N/A   Clear
7:00 AM 51.8 °F 32.0 °F 47% 30.12 in - North 4.6 mph - N/A   Clear
8:00 AM 54 °F 35 °F 37% 30.15 in 6 mi North 6.9 mph - -  
8:00 AM 55.4 °F 35.6 °F 47% 30.12 in - North 6.9 mph - N/A   Clear
9:00 AM 57.2 °F 33.8 °F 41% 30.15 in - North 8.1 mph - N/A   Clear
10:00 AM 62.6 °F 37.4 °F 39% 30.12 in - North 9.2 mph - N/A   Clear
11:00 AM 66.2 °F 39.2 °F 37% 30.12 in - North 8.1 mph - N/A   Clear
12:00 PM 69.8 °F 39.2 °F 33% 30.09 in - North 8.1 mph - N/A   Clear
1:00 PM 71.6 °F 41.0 °F 33% 30.06 in - North 6.9 mph - N/A   Clear
2:00 PM 74 °F 39 °F 18% 30.04 in 6 mi North 6.9 mph - -  
2:00 PM 73.4 °F 39.2 °F 29% 30.04 in - North 6.9 mph - N/A   Clear
3:00 PM 73.4 °F 37.4 °F 27% 30.04 in - North 5.8 mph - N/A   Clear
4:00 PM 73.4 °F 37.4 °F 27% 30.04 in - North 5.8 mph - N/A   Clear
5:00 PM 69.8 °F 37.4 °F 31% 30.04 in - North 5.8 mph - N/A   Clear
6:00 PM 68.0 °F 35.6 °F 30% 30.06 in - Calm Calm - N/A   Clear
7:00 PM 66.2 °F 33.8 °F 30% 30.06 in - North 3.5 mph - N/A   Clear
8:00 PM 65 °F 34 °F 20% 30.08 in 6 mi North 4.6 mph - -  
8:00 PM 64.4 °F 33.8 °F 32% 30.06 in - North 4.6 mph - N/A   Clear
9:00 PM 62.6 °F 32.0 °F 32% 30.09 in - NNW 8.1 mph - N/A   Clear
10:00 PM 59.0 °F 30.2 °F 34% 30.09 in - NNW 6.9 mph - N/A   Clear
11:00 PM 55.4 °F 30.2 °F 38% 30.09 in - North 4.6 mph - N/A   Clear